owner,sensor,date,latitude,longitude,vertical_datum,sea_water_temperature,qcFlag
BP,ioos:station:wmo:42887:2,2021-06-05T18:04:00Z,29.0396,-87.9221,30.0,24.0,11111222
BP,ioos:station:wmo:42887:2,2021-06-05T18:11:00Z,29.0384,-87.9222,30.0,24.0,11111222
BP,ioos:station:wmo:42887:2,2021-06-05T18:21:00Z,29.0384,-87.9222,30.0,24.0,11111222
BP,ioos:station:wmo:42887:2,2021-06-05T18:31:00Z,29.0384,-87.9222,30.0,24.0,11111222
BP,ioos:station:wmo:42887:2,2021-06-05T18:41:00Z,29.0384,-87.9222,30.0,24.0,11111222
BP,ioos:station:wmo:42887:2,2021-06-05T18:51:00Z,29.0384,-87.9222,30.0,24.0,11111222
BP,ioos:station:wmo:42887:2,2021-06-05T19:03:00Z,29.0385,-87.9225,30.0,24.0,11111222
BP,ioos:station:wmo:42887:2,2021-06-05T19:12:00Z,29.0385,-87.9224,30.0,24.0,11111222
BP,ioos:station:wmo:42887:2,2021-06-05T19:21:00Z,29.0385,-87.9224,30.0,24.0,11111222
BP,ioos:station:wmo:42887:2,2021-06-05T19:31:00Z,29.0385,-87.9224,30.0,24.0,11111222
BP,ioos:station:wmo:42887:2,2021-06-05T19:40:00Z,29.0385,-87.9224,30.0,24.0,11111222
BP,ioos:station:wmo:42887:2,2021-06-05T19:52:00Z,29.0385,-87.9224,30.0,23.9,11111222
BP,ioos:station:wmo:42887:2,2021-06-05T20:02:00Z,29.0385,-87.9224,30.0,23.9,11111222
BP,ioos:station:wmo:42887:2,2021-06-05T20:11:00Z,29.0391,-87.9222,30.0,24.0,11111222
BP,ioos:station:wmo:42887:2,2021-06-05T20:21:00Z,29.0391,-87.9222,30.0,24.0,11111222
BP,ioos:station:wmo:42887:2,2021-06-05T20:31:00Z,29.0399,-87.9222,30.0,23.9,11111222
BP,ioos:station:wmo:42887:2,2021-06-05T20:42:00Z,29.0399,-87.9223,30.0,23.9,11111222
BP,ioos:station:wmo:42887:2,2021-06-05T20:51:00Z,29.0399,-87.9223,30.0,23.9,11111222
BP,ioos:station:wmo:42887:2,2021-06-05T21:02:00Z,29.0400,-87.9223,30.0,23.9,11111222
BP,ioos:station:wmo:42887:2,2021-06-05T21:11:00Z,29.0400,-87.9223,30.0,23.9,11111222
BP,ioos:station:wmo:42887:2,2021-06-05T21:22:00Z,29.0400,-87.9222,30.0,24.0,11111222
BP,ioos:station:wmo:42887:2,2021-06-05T21:32:00Z,29.0400,-87.9222,30.0,24.1,11111222
BP,ioos:station:wmo:42887:2,2021-06-05T21:41:00Z,29.0400,-87.9222,30.0,24.2,11111222
BP,ioos:station:wmo:42887:2,2021-06-05T21:52:00Z,29.0400,-87.9222,30.0,24.3,11111222
BP,ioos:station:wmo:42887:2,2021-06-05T22:02:00Z,29.0400,-87.9222,30.0,24.3,11111222
BP,ioos:station:wmo:42887:2,2021-06-05T22:11:00Z,29.0400,-87.9222,30.0,24.3,11111222
BP,ioos:station:wmo:42887:2,2021-06-05T22:22:00Z,29.0399,-87.9222,30.0,24.3,11111222
BP,ioos:station:wmo:42887:2,2021-06-05T22:32:00Z,29.0399,-87.9222,30.0,24.4,11111222
BP,ioos:station:wmo:42887:2,2021-06-05T22:41:00Z,29.0387,-87.9222,30.0,24.4,11111222
BP,ioos:station:wmo:42887:2,2021-06-05T22:51:00Z,29.0386,-87.9222,30.0,24.4,11111222
BP,ioos:station:wmo:42887:2,2021-06-05T23:02:00Z,29.0386,-87.9222,30.0,24.4,11111222
BP,ioos:station:wmo:42887:2,2021-06-05T23:12:00Z,29.0386,-87.9222,30.0,24.4,11111222
BP,ioos:station:wmo:42887:2,2021-06-05T23:22:00Z,29.0386,-87.9222,30.0,24.4,11111222
BP,ioos:station:wmo:42887:2,2021-06-05T23:32:00Z,29.0386,-87.9222,30.0,24.4,11111222
BP,ioos:station:wmo:42887:2,2021-06-05T23:41:00Z,29.0386,-87.9222,30.0,24.4,11111222
BP,ioos:station:wmo:42887:2,2021-06-05T23:53:00Z,29.0386,-87.9222,30.0,24.3,11111222
BP,ioos:station:wmo:42887:2,2021-06-06T00:01:00Z,29.0385,-87.9218,30.0,24.4,11111222
BP,ioos:station:wmo:42887:2,2021-06-06T00:12:00Z,29.0385,-87.9218,30.0,24.3,11111222
BP,ioos:station:wmo:42887:2,2021-06-06T00:21:00Z,29.0385,-87.9218,30.0,24.3,11111222
BP,ioos:station:wmo:42887:2,2021-06-06T00:32:00Z,29.0382,-87.9225,30.0,24.3,11111222
BP,ioos:station:wmo:42887:2,2021-06-06T00:42:00Z,29.0382,-87.9225,30.0,24.3,11111222
BP,ioos:station:wmo:42887:2,2021-06-06T00:52:00Z,29.0382,-87.9225,30.0,24.4,11111222
BP,ioos:station:wmo:42887:2,2021-06-06T01:02:00Z,29.0382,-87.9225,30.0,24.3,11111222
BP,ioos:station:wmo:42887:2,2021-06-06T01:12:00Z,29.0383,-87.9224,30.0,24.3,11111222
BP,ioos:station:wmo:42887:2,2021-06-06T01:22:00Z,29.0383,-87.9224,30.0,24.2,11111222
BP,ioos:station:wmo:42887:2,2021-06-06T01:32:00Z,29.0383,-87.9224,30.0,24.1,11111222
BP,ioos:station:wmo:42887:2,2021-06-06T01:42:00Z,29.0383,-87.9223,30.0,24.2,11111222
BP,ioos:station:wmo:42887:2,2021-06-06T01:52:00Z,29.0383,-87.9223,30.0,24.3,11111222
BP,ioos:station:wmo:42887:2,2021-06-06T02:00:00Z,29.0383,-87.9222,30.0,24.2,11111222
BP,ioos:station:wmo:42887:2,2021-06-06T02:11:00Z,29.0383,-87.9222,30.0,24.2,11111222
BP,ioos:station:wmo:42887:2,2021-06-06T02:21:00Z,29.0383,-87.9222,30.0,24.2,11111222
BP,ioos:station:wmo:42887:2,2021-06-06T02:31:00Z,29.0383,-87.9222,30.0,24.1,11111222
BP,ioos:station:wmo:42887:2,2021-06-06T02:41:00Z,29.0383,-87.9222,30.0,24.2,11111222
BP,ioos:station:wmo:42887:2,2021-06-06T02:51:00Z,29.0383,-87.9223,30.0,24.3,11111222
BP,ioos:station:wmo:42887:2,2021-06-06T03:02:00Z,29.0383,-87.9223,30.0,24.2,11111222
BP,ioos:station:wmo:42887:2,2021-06-06T03:11:00Z,29.0383,-87.9223,30.0,24.2,11111222
BP,ioos:station:wmo:42887:2,2021-06-06T03:21:00Z,29.0383,-87.9222,30.0,24.3,11111222
BP,ioos:station:wmo:42887:2,2021-06-06T03:32:00Z,29.0383,-87.9222,30.0,24.3,11111222
BP,ioos:station:wmo:42887:2,2021-06-06T03:42:00Z,29.0383,-87.9222,30.0,24.3,11111222
BP,ioos:station:wmo:42887:2,2021-06-06T03:52:00Z,29.0382,-87.9224,30.0,24.3,11111222
BP,ioos:station:wmo:42887:2,2021-06-06T04:01:00Z,29.0383,-87.9223,30.0,24.4,11111222
BP,ioos:station:wmo:42887:2,2021-06-06T04:12:00Z,29.0383,-87.9223,30.0,24.3,11111222
BP,ioos:station:wmo:42887:2,2021-06-06T04:21:00Z,29.0383,-87.9222,30.0,24.3,11111222
BP,ioos:station:wmo:42887:2,2021-06-06T04:31:00Z,29.0384,-87.9222,30.0,24.3,11111222
BP,ioos:station:wmo:42887:2,2021-06-06T04:41:00Z,29.0383,-87.9222,30.0,24.3,11111222
BP,ioos:station:wmo:42887:2,2021-06-06T04:52:00Z,29.0381,-87.9228,30.0,24.3,11111222
BP,ioos:station:wmo:42887:2,2021-06-06T05:02:00Z,29.0381,-87.9228,30.0,24.3,11111222
BP,ioos:station:wmo:42887:2,2021-06-06T05:12:00Z,29.0382,-87.9228,30.0,24.3,11111222
BP,ioos:station:wmo:42887:2,2021-06-06T05:22:00Z,29.0382,-87.9228,30.0,24.3,11111222
BP,ioos:station:wmo:42887:2,2021-06-06T05:32:00Z,29.0382,-87.9226,30.0,24.3,11111222
BP,ioos:station:wmo:42887:2,2021-06-06T05:41:00Z,29.0382,-87.9226,30.0,24.3,11111222
BP,ioos:station:wmo:42887:2,2021-06-06T05:52:00Z,29.0382,-87.9224,30.0,24.3,11111222
BP,ioos:station:wmo:42887:2,2021-06-06T06:01:00Z,29.0382,-87.9224,30.0,24.3,11111222
BP,ioos:station:wmo:42887:2,2021-06-06T06:11:00Z,29.0382,-87.9224,30.0,24.4,11111222
BP,ioos:station:wmo:42887:2,2021-06-06T06:21:00Z,29.0382,-87.9224,30.0,24.4,11111222
BP,ioos:station:wmo:42887:2,2021-06-06T06:32:00Z,29.0383,-87.9223,30.0,24.4,11111222
BP,ioos:station:wmo:42887:2,2021-06-06T06:42:00Z,29.0383,-87.9223,30.0,24.4,11111222
BP,ioos:station:wmo:42887:2,2021-06-06T06:52:00Z,29.0383,-87.9223,30.0,24.4,11111222
BP,ioos:station:wmo:42887:2,2021-06-06T07:02:00Z,29.0383,-87.9223,30.0,24.4,11111222
BP,ioos:station:wmo:42887:2,2021-06-06T07:13:00Z,29.0383,-87.9223,30.0,24.3,11111222
BP,ioos:station:wmo:42887:2,2021-06-06T07:20:00Z,29.0383,-87.9223,30.0,24.4,11111222
BP,ioos:station:wmo:42887:2,2021-06-06T07:31:00Z,29.0383,-87.9223,30.0,24.4,11111222
BP,ioos:station:wmo:42887:2,2021-06-06T07:42:00Z,29.0383,-87.9223,30.0,24.4,11111222
BP,ioos:station:wmo:42887:2,2021-06-06T07:51:00Z,29.0383,-87.9223,30.0,24.3,11111222
BP,ioos:station:wmo:42887:2,2021-06-06T08:01:00Z,29.0383,-87.9223,30.0,24.3,11111222
BP,ioos:station:wmo:42887:2,2021-06-06T08:11:00Z,29.0383,-87.9223,30.0,24.3,11111222
BP,ioos:station:wmo:42887:2,2021-06-06T08:22:00Z,29.0383,-87.9223,30.0,24.3,11111222
BP,ioos:station:wmo:42887:2,2021-06-06T08:32:00Z,29.0383,-87.9223,30.0,24.3,11111222
BP,ioos:station:wmo:42887:2,2021-06-06T08:41:00Z,29.0383,-87.9223,30.0,24.3,11111222
BP,ioos:station:wmo:42887:2,2021-06-06T08:51:00Z,29.0383,-87.9223,30.0,24.3,11111222
BP,ioos:station:wmo:42887:2,2021-06-06T09:01:00Z,29.0383,-87.9222,30.0,24.3,11111222
BP,ioos:station:wmo:42887:2,2021-06-06T09:11:00Z,29.0383,-87.9222,30.0,24.3,11111222
BP,ioos:station:wmo:42887:2,2021-06-06T09:22:00Z,29.0383,-87.9222,30.0,24.3,11111222
BP,ioos:station:wmo:42887:2,2021-06-06T09:32:00Z,29.0383,-87.9222,30.0,24.3,11111222
BP,ioos:station:wmo:42887:2,2021-06-06T09:42:00Z,29.0383,-87.9222,30.0,24.3,11111222
BP,ioos:station:wmo:42887:2,2021-06-06T09:52:00Z,29.0383,-87.9222,30.0,24.3,11111222
BP,ioos:station:wmo:42887:2,2021-06-06T10:02:00Z,29.0383,-87.9222,30.0,24.3,11111222
BP,ioos:station:wmo:42887:2,2021-06-06T10:12:00Z,29.0383,-87.9223,30.0,24.2,11111222
BP,ioos:station:wmo:42887:2,2021-06-06T10:22:00Z,29.0383,-87.9223,30.0,24.2,11111222
BP,ioos:station:wmo:42887:2,2021-06-06T10:32:00Z,29.0383,-87.9223,30.0,24.3,11111222
BP,ioos:station:wmo:42887:2,2021-06-06T10:42:00Z,29.0383,-87.9223,30.0,24.3,11111222
BP,ioos:station:wmo:42887:2,2021-06-06T10:52:00Z,29.0384,-87.9222,30.0,24.3,11111222
BP,ioos:station:wmo:42887:2,2021-06-06T11:02:00Z,29.0384,-87.9221,30.0,24.3,11111222
BP,ioos:station:wmo:42887:2,2021-06-06T11:11:00Z,29.0384,-87.9221,30.0,24.3,11111222
BP,ioos:station:wmo:42887:2,2021-06-06T11:22:00Z,29.0384,-87.9221,30.0,24.3,11111222
BP,ioos:station:wmo:42887:2,2021-06-06T11:32:00Z,29.0384,-87.9221,30.0,24.3,11111222
BP,ioos:station:wmo:42887:2,2021-06-06T11:41:00Z,29.0384,-87.9221,30.0,24.3,11111222
BP,ioos:station:wmo:42887:2,2021-06-06T11:53:00Z,29.0384,-87.9221,30.0,24.3,11111222
BP,ioos:station:wmo:42887:2,2021-06-06T12:02:00Z,29.0384,-87.9221,30.0,24.3,11111222
BP,ioos:station:wmo:42887:2,2021-06-06T12:12:00Z,29.0384,-87.9221,30.0,24.3,11111222
BP,ioos:station:wmo:42887:2,2021-06-06T12:22:00Z,29.0384,-87.9221,30.0,24.3,11111222
BP,ioos:station:wmo:42887:2,2021-06-06T12:31:00Z,29.0384,-87.9221,30.0,24.3,11111222
BP,ioos:station:wmo:42887:2,2021-06-06T12:43:00Z,29.0384,-87.9221,30.0,24.3,11111222
BP,ioos:station:wmo:42887:2,2021-06-06T12:52:00Z,29.0383,-87.9223,30.0,24.3,11111222
BP,ioos:station:wmo:42887:2,2021-06-06T13:02:00Z,29.0383,-87.9223,30.0,24.3,11111222
BP,ioos:station:wmo:42887:2,2021-06-06T13:12:00Z,29.0383,-87.9222,30.0,24.2,11111222
BP,ioos:station:wmo:42887:2,2021-06-06T13:22:00Z,29.0383,-87.9222,30.0,24.2,11111222
BP,ioos:station:wmo:42887:2,2021-06-06T13:32:00Z,29.0383,-87.9222,30.0,24.1,11111222
BP,ioos:station:wmo:42887:2,2021-06-06T13:43:00Z,29.0383,-87.9222,30.0,24.1,11111222
BP,ioos:station:wmo:42887:2,2021-06-06T13:52:00Z,29.0383,-87.9222,30.0,24.1,11111222
BP,ioos:station:wmo:42887:2,2021-06-06T14:01:00Z,29.0384,-87.9223,30.0,24.1,11111222
BP,ioos:station:wmo:42887:2,2021-06-06T14:12:00Z,29.0384,-87.9223,30.0,24.2,11111222
BP,ioos:station:wmo:42887:2,2021-06-06T14:22:00Z,29.0384,-87.9223,30.0,24.3,11111222
BP,ioos:station:wmo:42887:2,2021-06-06T14:33:00Z,29.0383,-87.9223,30.0,24.3,11111222
BP,ioos:station:wmo:42887:2,2021-06-06T14:42:00Z,29.0383,-87.9223,30.0,24.2,11111222
BP,ioos:station:wmo:42887:2,2021-06-06T14:52:00Z,29.0384,-87.9222,30.0,24.2,11111222
BP,ioos:station:wmo:42887:2,2021-06-06T15:03:00Z,29.0384,-87.9222,30.0,24.2,11111222
BP,ioos:station:wmo:42887:2,2021-06-06T15:13:00Z,29.0383,-87.9223,30.0,24.1,11111222
BP,ioos:station:wmo:42887:2,2021-06-06T15:22:00Z,29.0383,-87.9223,30.0,24.1,11111222
BP,ioos:station:wmo:42887:2,2021-06-06T15:32:00Z,29.0383,-87.9223,30.0,24.1,11111222
BP,ioos:station:wmo:42887:2,2021-06-06T15:43:00Z,29.0383,-87.9223,30.0,24.1,11111222
BP,ioos:station:wmo:42887:2,2021-06-06T15:52:00Z,29.0383,-87.9223,30.0,24.0,11111222
BP,ioos:station:wmo:42887:2,2021-06-06T16:02:00Z,29.0383,-87.9222,30.0,24.0,11111222
BP,ioos:station:wmo:42887:2,2021-06-06T16:12:00Z,29.0385,-87.9221,30.0,24.0,11111222
BP,ioos:station:wmo:42887:2,2021-06-06T16:21:00Z,29.0385,-87.9221,30.0,24.0,11111222
BP,ioos:station:wmo:42887:2,2021-06-06T16:32:00Z,29.0385,-87.9221,30.0,24.0,11111222
BP,ioos:station:wmo:42887:2,2021-06-06T16:43:00Z,29.0385,-87.9221,30.0,24.0,11111222
BP,ioos:station:wmo:42887:2,2021-06-06T16:52:00Z,29.0383,-87.9224,30.0,24.0,11111222
BP,ioos:station:wmo:42887:2,2021-06-06T17:03:00Z,29.0383,-87.9224,30.0,24.0,11111222
BP,ioos:station:wmo:42887:2,2021-06-06T17:11:00Z,29.0383,-87.9223,30.0,24.1,11111222
BP,ioos:station:wmo:42887:2,2021-06-06T17:22:00Z,29.0383,-87.9223,30.0,24.1,11111222
BP,ioos:station:wmo:42887:2,2021-06-06T17:32:00Z,29.0382,-87.9224,30.0,24.1,11111222
BP,ioos:station:wmo:42887:2,2021-06-06T17:42:00Z,29.0382,-87.9224,30.0,24.1,11111222
BP,ioos:station:wmo:42887:2,2021-06-06T17:52:00Z,29.0382,-87.9224,30.0,24.1,11111222
BP,ioos:station:wmo:42887:2,2021-06-06T18:02:00Z,29.0382,-87.9224,30.0,24.1,11111222
BP,ioos:station:wmo:42887:2,2021-06-06T18:11:00Z,29.0382,-87.9224,30.0,24.1,11111222
BP,ioos:station:wmo:42887:2,2021-06-06T18:21:00Z,29.0382,-87.9224,30.0,24.1,11111222
BP,ioos:station:wmo:42887:2,2021-06-06T18:32:00Z,29.0384,-87.9223,30.0,24.1,11111222
BP,ioos:station:wmo:42887:2,2021-06-06T18:41:00Z,29.0385,-87.9222,30.0,24.2,11111222
BP,ioos:station:wmo:42887:2,2021-06-06T18:51:00Z,29.0385,-87.9222,30.0,24.2,11111222
BP,ioos:station:wmo:42887:2,2021-06-06T19:01:00Z,29.0383,-87.9223,30.0,24.3,11111222
BP,ioos:station:wmo:42887:2,2021-06-06T19:12:00Z,29.0383,-87.9223,30.0,24.3,11111222
BP,ioos:station:wmo:42887:2,2021-06-06T19:22:00Z,29.0383,-87.9223,30.0,24.1,11111222
BP,ioos:station:wmo:42887:2,2021-06-06T19:32:00Z,29.0383,-87.9223,30.0,24.1,11111222
BP,ioos:station:wmo:42887:2,2021-06-06T19:41:00Z,29.0383,-87.9222,30.0,24.2,11111222
BP,ioos:station:wmo:42887:2,2021-06-06T19:52:00Z,29.0383,-87.9222,30.0,24.4,11111222
BP,ioos:station:wmo:42887:2,2021-06-06T20:01:00Z,29.0384,-87.9221,30.0,24.4,11111222
BP,ioos:station:wmo:42887:2,2021-06-06T20:12:00Z,29.0384,-87.9221,30.0,24.4,11111222
BP,ioos:station:wmo:42887:2,2021-06-06T20:21:00Z,29.0384,-87.9221,30.0,24.4,11111222
BP,ioos:station:wmo:42887:2,2021-06-06T20:30:00Z,29.0381,-87.9227,30.0,24.5,11111222
BP,ioos:station:wmo:42887:2,2021-06-06T20:41:00Z,29.0381,-87.9227,30.0,24.4,11111222
BP,ioos:station:wmo:42887:2,2021-06-06T20:51:00Z,29.0381,-87.9226,30.0,24.4,11111222
BP,ioos:station:wmo:42887:2,2021-06-06T21:01:00Z,29.0381,-87.9226,30.0,24.4,11111222
BP,ioos:station:wmo:42887:2,2021-06-06T21:11:00Z,29.0384,-87.9222,30.0,24.5,11111222
BP,ioos:station:wmo:42887:2,2021-06-06T21:22:00Z,29.0384,-87.9222,30.0,24.4,11111222
BP,ioos:station:wmo:42887:2,2021-06-06T21:31:00Z,29.0384,-87.9222,30.0,24.5,11111222
BP,ioos:station:wmo:42887:2,2021-06-06T21:40:00Z,29.0383,-87.9222,30.0,24.4,11111222
BP,ioos:station:wmo:42887:2,2021-06-06T21:51:00Z,29.0383,-87.9222,30.0,24.4,11111222
BP,ioos:station:wmo:42887:2,2021-06-06T22:02:00Z,29.0383,-87.9222,30.0,24.4,11111222
BP,ioos:station:wmo:42887:2,2021-06-06T22:11:00Z,29.0383,-87.9222,30.0,24.4,11111222
BP,ioos:station:wmo:42887:2,2021-06-06T22:21:00Z,29.0383,-87.9222,30.0,24.4,11111222
BP,ioos:station:wmo:42887:2,2021-06-06T22:30:00Z,29.0384,-87.9222,30.0,24.4,11111222
BP,ioos:station:wmo:42887:2,2021-06-06T22:41:00Z,29.0384,-87.9222,30.0,24.4,11111222
BP,ioos:station:wmo:42887:2,2021-06-06T22:51:00Z,29.0384,-87.9222,30.0,24.5,11111222
BP,ioos:station:wmo:42887:2,2021-06-06T23:01:00Z,29.0384,-87.9222,30.0,24.4,11111222
BP,ioos:station:wmo:42887:2,2021-06-06T23:10:00Z,29.0384,-87.9221,30.0,24.4,11111222
BP,ioos:station:wmo:42887:2,2021-06-06T23:21:00Z,29.0384,-87.9221,30.0,24.4,11111222
BP,ioos:station:wmo:42887:2,2021-06-06T23:31:00Z,29.0383,-87.9222,30.0,24.4,11111222
BP,ioos:station:wmo:42887:2,2021-06-06T23:41:00Z,29.0384,-87.9223,30.0,24.4,11111222
BP,ioos:station:wmo:42887:2,2021-06-06T23:51:00Z,29.0384,-87.9223,30.0,24.4,11111222
BP,ioos:station:wmo:42887:2,2021-06-07T00:00:00Z,29.0384,-87.9223,30.0,24.4,11111222
BP,ioos:station:wmo:42887:2,2021-06-07T00:10:00Z,29.0396,-87.9222,30.0,24.4,11111222
BP,ioos:station:wmo:42887:2,2021-06-07T00:22:00Z,29.0396,-87.9225,30.0,24.4,11111222
BP,ioos:station:wmo:42887:2,2021-06-07T00:31:00Z,29.0396,-87.9225,30.0,24.4,11111222
BP,ioos:station:wmo:42887:2,2021-06-07T00:42:00Z,29.0395,-87.9224,30.0,24.4,11111222
BP,ioos:station:wmo:42887:2,2021-06-07T00:51:00Z,29.0392,-87.9224,30.0,24.4,11111222
BP,ioos:station:wmo:42887:2,2021-06-07T01:00:00Z,29.0391,-87.9224,30.0,24.4,11111222
BP,ioos:station:wmo:42887:2,2021-06-07T01:11:00Z,29.0391,-87.9224,30.0,24.4,11111222
BP,ioos:station:wmo:42887:2,2021-06-07T01:21:00Z,29.0392,-87.9222,30.0,24.4,11111222
BP,ioos:station:wmo:42887:2,2021-06-07T01:31:00Z,29.0392,-87.9222,30.0,24.4,11111222
BP,ioos:station:wmo:42887:2,2021-06-07T01:41:00Z,29.0392,-87.9222,30.0,24.4,11111222
BP,ioos:station:wmo:42887:2,2021-06-07T01:51:00Z,29.0392,-87.9222,30.0,24.4,11111222
BP,ioos:station:wmo:42887:2,2021-06-07T02:01:00Z,29.0391,-87.9222,30.0,24.4,11111222
BP,ioos:station:wmo:42887:2,2021-06-07T02:11:00Z,29.0391,-87.9222,30.0,24.4,11111222
BP,ioos:station:wmo:42887:2,2021-06-07T02:21:00Z,29.0392,-87.9222,30.0,24.4,11111222
BP,ioos:station:wmo:42887:2,2021-06-07T02:31:00Z,29.0391,-87.9223,30.0,24.5,11111222
BP,ioos:station:wmo:42887:2,2021-06-07T02:40:00Z,29.0391,-87.9223,30.0,24.5,11111222
BP,ioos:station:wmo:42887:2,2021-06-07T02:51:00Z,29.0391,-87.9223,30.0,24.5,11111222
BP,ioos:station:wmo:42887:2,2021-06-07T03:01:00Z,29.0390,-87.9222,30.0,24.6,11111222
BP,ioos:station:wmo:42887:2,2021-06-07T03:11:00Z,29.0390,-87.9222,30.0,24.6,11111222
BP,ioos:station:wmo:42887:2,2021-06-07T03:20:00Z,29.0391,-87.9221,30.0,24.6,11111222
BP,ioos:station:wmo:42887:2,2021-06-07T03:30:00Z,29.0392,-87.9221,30.0,24.6,11111222
BP,ioos:station:wmo:42887:2,2021-06-07T03:41:00Z,29.0392,-87.9221,30.0,24.6,11111222
BP,ioos:station:wmo:42887:2,2021-06-07T03:51:00Z,29.0392,-87.9221,30.0,24.5,11111222
BP,ioos:station:wmo:42887:2,2021-06-07T04:01:00Z,29.0392,-87.9221,30.0,24.4,11111222
BP,ioos:station:wmo:42887:2,2021-06-07T04:10:00Z,29.0392,-87.9221,30.0,24.4,11111222
BP,ioos:station:wmo:42887:2,2021-06-07T04:21:00Z,29.0392,-87.9222,30.0,24.5,11111222
BP,ioos:station:wmo:42887:2,2021-06-07T04:30:00Z,29.0392,-87.9222,30.0,24.5,11111222
BP,ioos:station:wmo:42887:2,2021-06-07T04:40:00Z,29.0391,-87.9222,30.0,24.4,11111222
BP,ioos:station:wmo:42887:2,2021-06-07T04:50:00Z,29.0389,-87.9230,30.0,24.4,11111222
BP,ioos:station:wmo:42887:2,2021-06-07T05:00:00Z,29.0389,-87.9230,30.0,24.4,11111222
BP,ioos:station:wmo:42887:2,2021-06-07T05:11:00Z,29.0389,-87.9230,30.0,24.4,11111222
BP,ioos:station:wmo:42887:2,2021-06-07T05:21:00Z,29.0391,-87.9225,30.0,24.4,11111222
BP,ioos:station:wmo:42887:2,2021-06-07T05:30:00Z,29.0391,-87.9224,30.0,24.4,11111222
BP,ioos:station:wmo:42887:2,2021-06-07T05:41:00Z,29.0391,-87.9223,30.0,24.5,11111222
BP,ioos:station:wmo:42887:2,2021-06-07T05:51:00Z,29.0392,-87.9223,30.0,24.4,11111222
BP,ioos:station:wmo:42887:2,2021-06-07T06:00:00Z,29.0391,-87.9223,30.0,24.4,11111222
BP,ioos:station:wmo:42887:2,2021-06-07T06:11:00Z,29.0392,-87.9223,30.0,24.4,11111222
BP,ioos:station:wmo:42887:2,2021-06-07T06:21:00Z,29.0392,-87.9223,30.0,24.4,11111222
BP,ioos:station:wmo:42887:2,2021-06-07T06:30:00Z,29.0392,-87.9223,30.0,24.4,11111222
BP,ioos:station:wmo:42887:2,2021-06-07T06:41:00Z,29.0392,-87.9223,30.0,24.4,11111222
BP,ioos:station:wmo:42887:2,2021-06-07T06:50:00Z,29.0392,-87.9222,30.0,24.4,11111222
BP,ioos:station:wmo:42887:2,2021-06-07T07:00:00Z,29.0392,-87.9222,30.0,24.4,11111222
BP,ioos:station:wmo:42887:2,2021-06-07T07:10:00Z,29.0392,-87.9222,30.0,24.4,11111222
BP,ioos:station:wmo:42887:2,2021-06-07T07:21:00Z,29.0392,-87.9222,30.0,24.4,11111222
BP,ioos:station:wmo:42887:2,2021-06-07T07:31:00Z,29.0392,-87.9222,30.0,24.4,11111222
BP,ioos:station:wmo:42887:2,2021-06-07T07:42:00Z,29.0392,-87.9222,30.0,24.4,11111222
BP,ioos:station:wmo:42887:2,2021-06-07T07:50:00Z,29.0392,-87.9222,30.0,24.4,11111222
BP,ioos:station:wmo:42887:2,2021-06-07T08:01:00Z,29.0392,-87.9222,30.0,24.5,11111222
BP,ioos:station:wmo:42887:2,2021-06-07T08:10:00Z,29.0392,-87.9222,30.0,24.5,11111222
BP,ioos:station:wmo:42887:2,2021-06-07T08:21:00Z,29.0392,-87.9222,30.0,24.5,11111222
BP,ioos:station:wmo:42887:2,2021-06-07T08:30:00Z,29.0392,-87.9221,30.0,24.6,11111222
BP,ioos:station:wmo:42887:2,2021-06-07T08:40:00Z,29.0392,-87.9221,30.0,24.6,11111222
BP,ioos:station:wmo:42887:2,2021-06-07T08:51:00Z,29.0392,-87.9221,30.0,24.6,11111222
BP,ioos:station:wmo:42887:2,2021-06-07T09:00:00Z,29.0392,-87.9222,30.0,24.6,11111222
BP,ioos:station:wmo:42887:2,2021-06-07T09:11:00Z,29.0392,-87.9222,30.0,24.6,11111222
BP,ioos:station:wmo:42887:2,2021-06-07T09:20:00Z,29.0392,-87.9222,30.0,24.6,11111222
BP,ioos:station:wmo:42887:2,2021-06-07T09:30:00Z,29.0392,-87.9222,30.0,24.6,11111222
BP,ioos:station:wmo:42887:2,2021-06-07T09:40:00Z,29.0391,-87.9223,30.0,24.5,11111222
BP,ioos:station:wmo:42887:2,2021-06-07T09:51:00Z,29.0391,-87.9223,30.0,24.5,11111222
BP,ioos:station:wmo:42887:2,2021-06-07T10:01:00Z,29.0391,-87.9223,30.0,24.5,11111222
BP,ioos:station:wmo:42887:2,2021-06-07T10:10:00Z,29.0392,-87.9223,30.0,24.5,11111222
BP,ioos:station:wmo:42887:2,2021-06-07T10:20:00Z,29.0392,-87.9223,30.0,24.5,11111222
BP,ioos:station:wmo:42887:2,2021-06-07T10:31:00Z,29.0392,-87.9223,30.0,24.5,11111222
BP,ioos:station:wmo:42887:2,2021-06-07T10:42:00Z,29.0392,-87.9223,30.0,24.5,11111222
BP,ioos:station:wmo:42887:2,2021-06-07T10:51:00Z,29.0392,-87.9223,30.0,24.5,11111222
BP,ioos:station:wmo:42887:2,2021-06-07T11:02:00Z,29.0392,-87.9223,30.0,24.5,11111222
BP,ioos:station:wmo:42887:2,2021-06-07T11:10:00Z,29.0392,-87.9222,30.0,24.5,11111222
BP,ioos:station:wmo:42887:2,2021-06-07T11:21:00Z,29.0392,-87.9222,30.0,24.5,11111222
BP,ioos:station:wmo:42887:2,2021-06-07T11:30:00Z,29.0393,-87.9221,30.0,24.6,11111222
BP,ioos:station:wmo:42887:2,2021-06-07T11:41:00Z,29.0393,-87.9221,30.0,24.6,11111222
BP,ioos:station:wmo:42887:2,2021-06-07T11:50:00Z,29.0392,-87.9221,30.0,24.6,11111222
BP,ioos:station:wmo:42887:2,2021-06-07T12:00:00Z,29.0392,-87.9221,30.0,24.7,11111222
BP,ioos:station:wmo:42887:2,2021-06-07T12:10:00Z,29.0392,-87.9221,30.0,24.7,11111222
BP,ioos:station:wmo:42887:2,2021-06-07T12:20:00Z,29.0392,-87.9222,30.0,24.8,11111222
BP,ioos:station:wmo:42887:2,2021-06-07T12:29:00Z,29.0392,-87.9222,30.0,24.8,11111222
BP,ioos:station:wmo:42887:2,2021-06-07T12:40:00Z,29.0391,-87.9224,30.0,24.8,11111222
BP,ioos:station:wmo:42887:2,2021-06-07T12:51:00Z,29.0391,-87.9224,30.0,24.7,11111222
BP,ioos:station:wmo:42887:2,2021-06-07T13:01:00Z,29.0392,-87.9223,30.0,24.7,11111222
BP,ioos:station:wmo:42887:2,2021-06-07T13:10:00Z,29.0392,-87.9223,30.0,24.7,11111222
BP,ioos:station:wmo:42887:2,2021-06-07T13:20:00Z,29.0392,-87.9223,30.0,24.5,11111222
BP,ioos:station:wmo:42887:2,2021-06-07T13:31:00Z,29.0391,-87.9223,30.0,24.4,11111222
BP,ioos:station:wmo:42887:2,2021-06-07T13:40:00Z,29.0391,-87.9223,30.0,24.4,11111222
BP,ioos:station:wmo:42887:2,2021-06-07T13:50:00Z,29.0391,-87.9223,30.0,24.4,11111222
BP,ioos:station:wmo:42887:2,2021-06-07T14:00:00Z,29.0391,-87.9223,30.0,24.4,11111222
BP,ioos:station:wmo:42887:2,2021-06-07T14:10:00Z,29.0392,-87.9223,30.0,24.3,11111222
BP,ioos:station:wmo:42887:2,2021-06-07T14:20:00Z,29.0392,-87.9223,30.0,24.3,11111222
BP,ioos:station:wmo:42887:2,2021-06-07T14:31:00Z,29.0392,-87.9223,30.0,24.3,11111222
BP,ioos:station:wmo:42887:2,2021-06-07T14:41:00Z,29.0391,-87.9223,30.0,24.3,11111222
BP,ioos:station:wmo:42887:2,2021-06-07T14:51:00Z,29.0392,-87.9222,30.0,24.3,11111222
BP,ioos:station:wmo:42887:2,2021-06-07T15:00:00Z,29.0392,-87.9223,30.0,24.4,11111222
BP,ioos:station:wmo:42887:2,2021-06-07T15:10:00Z,29.0392,-87.9223,30.0,24.3,11111222
BP,ioos:station:wmo:42887:2,2021-06-07T15:21:00Z,29.0392,-87.9223,30.0,24.3,11111222
BP,ioos:station:wmo:42887:2,2021-06-07T15:31:00Z,29.0392,-87.9223,30.0,24.3,11111222
BP,ioos:station:wmo:42887:2,2021-06-07T15:42:00Z,29.0392,-87.9223,30.0,24.3,11111222
BP,ioos:station:wmo:42887:2,2021-06-07T15:51:00Z,29.0392,-87.9223,30.0,24.3,11111222
BP,ioos:station:wmo:42887:2,2021-06-07T16:01:00Z,29.0392,-87.9223,30.0,24.3,11111222
BP,ioos:station:wmo:42887:2,2021-06-07T16:11:00Z,29.0393,-87.9222,30.0,24.3,11111222